Location: Grange Rosano
(44.4500°N, 6.9667°E)
Time: 21:22:57
(UTC+00:00)

NOSS 3-3 (C) - Pass Details

Date: 26 May 2022
Orbit: 780 x 1432 km, 63.4° (Epoch: 28 June)

Event Time Altitude Azimuth Distance (km) Brightness Sun altitude
Exits shadow 03:14:21 - 231° (SW) 2,594 5.5 -6.7°
Reaches altitude 10° 03:14:46 10° 232° (SW) 2,440 5.4 -6.7°
Maximum altitude 03:20:19 62° 313° (NW) 1,022 4.1 -5.9°
Drops below altitude 10° 03:26:46 10° 33° (NNE) 2,819 7.8 -5.0°
Sets 03:29:39 0° 37° (NE) 3,880 8.9 -4.6°
